Погода в Еремееве

Россия / Республика Коми     62°37′40″N   57°33′03″E
темп.,
°C
ветер,
м/с
пор.,
м/с
влажн.,
%
обл.,
%
осадки,
мм/ч
давл.,
гПа
погр.,
м
6 марта, сб
сб600:00−18сз2597100 0.0 1000141
03:00−21сз2399100 0.0 100168
06:00−22сз249998 0.0 100384
09:00−19зсз239499 0.1 1003265
12:00−17з2490100 0.1 1004510
15:00−17зсз2489100 0.1 1005624
18:00−20зсз2298100 0.1 100626
21:00−22зсз1199100 0.1 100720
7 марта, вс
вс700:00−23юз1110097 0.0 100620
03:00−23ю119997 0.1 100720
06:00−22ю119991 0.1 100732
09:00−20ю129295 0.1 1007299
12:00−17ююз1283100 0.1 1007587
15:00−16ююз1284100 0.1 1007514
18:00−21в119684 0.0 100720
21:00−21вюв129779 0.0 100720
8 марта, пн
пн800:00−22в129882 0.0 100720
03:00−22в129885 0.1 100727
06:00−23в229779 0.0 100622
09:00−18в238976 0.0 1006282
12:00−15в237995 0.0 1004752
15:00−15всв248297 0.1 1004799
18:00−20в2392100 0.0 100553
21:00−23св239085 0.0 100531
9 марта, вт
вт900:00−25с239255 0.0 100629
03:00−26с249471 0.0 100694
06:00−29ссз369688 0.0 1007145
09:00−27ссз369470 0.0 1008238
12:00−24ссз469153 0.0 1009321
15:00−24ссз489065 0.0 1010386
18:00−27с4109357 0.0 1012358
21:00−30ссз389530 0.0 1013227
10 марта, ср
ср1000:00−32ссз25960 0.0 1014133
03:00−33ссз24970 0.0 101493
06:00−34сз22980 0.0 101420
09:00−27з128910 0.0 1013251
12:00−22юз238686 0.0 1011401
15:00−19юз259294 0.1 1009489
18:00−21ююз2799100 0.1 1009183
21:00−20юз2599100 0.3 1009175